Location: Unspecified
(0.0000°N, 0.0000°E)
Time: 13:45:10
(UTC+00:00)

Explorer 11/Cluster Stage 4 - Pass Details

Date: 22 November 2019
Orbit: 467 x 1259 km, 28.8° (Epoch: 08 December)

Event Time Altitude Azimuth Distance (km) Brightness Sun altitude
Exits shadow 04:39:18 12° 254° (WSW) 3,010 9.1 -15.6°
Maximum altitude 04:44:36 23° 209° (SSW) 2,250 8.8 -14.4°
Drops below altitude 10° 04:50:14 10° 159° (SSE) 2,913 10.1 -13.1°
Sets 04:53:26 0° 145° (SE) 3,738 11.1 -12.3°
